Simultaneous Nadir Overpasses (SNOs) Predictions

Prediction of SNOs between NOAA-20 and AQUA Satellite Orbit:

Table of predicted SNOs for the next 14.0 days since TLE Epoch: 12/21/2024
Index Date (NOAA-20) Time (NOAA-20) Lat,Lon (NOAA-20) SZA (NOAA-20 ) Date (AQUA) Time (AQUA) Lat,Lon (AQUA) SZA (AQUA ) Distance(km) Time Diff (sec)
1 12/21/2024 05:06:52 81.32, 32.76 110.22 12/21/2024 05:07:05 81.32, 32.75 110.22 0.42 13
2 12/21/2024 05:57:37 -81.32,-159.79 69.80 12/21/2024 05:56:25 -81.31,-159.71 69.77 1.37 72
3 12/23/2024 15:28:37 -81.32, 57.29 69.75 12/23/2024 15:29:14 -81.32, 57.16 69.76 2.22 37
4 12/23/2024 16:19:21 81.32,-135.18 110.22 12/23/2024 16:18:33 81.32,-135.01 110.23 2.90 48
5 12/26/2024 01:50:21 81.32, 81.79 110.24 12/26/2024 01:51:21 81.31, 81.65 110.22 2.39 60
6 12/26/2024 02:41:06 -81.32,-110.69 69.80 12/26/2024 02:40:41 -81.31,-110.80 69.77 2.02 25
7 12/28/2024 13:02:50 81.32, -86.29 110.16 12/28/2024 13:02:46 81.31, -86.13 110.14 2.62 4
8 12/30/2024 23:24:34 -81.32, -61.49 69.99 12/30/2024 23:24:50 -81.32, -61.51 70.00 0.43 16
9 12/31/2024 00:15:17 81.32, 106.35 109.94 12/31/2024 00:14:09 81.32, 106.26 109.99 1.60 68
10 01/02/2025 09:46:17 81.32, -36.88 109.85 01/02/2025 09:46:52 81.32, -36.88 109.83 0.49 35



Historial Predications of SNOs between NOAA-20 and AQUA
